Regional Weather Roundup
Issued by NWS

Home | Current Version | Previous Version | Graphics & Text | Print | Product List | Glossary On
Versions: 1 2 3 4 5 6 7 8 9 10 11 12 13 14 15 16 17 18 19 20 21 22 23 24 25 26 27 28 29 30 31 32 33 34 35 36 37 38 39 40 41 42 43 44 45 46 47 48 49 50
000
ASUS43 KTOP 170659
RWRKS

WEATHER ROUNDUP FOR KANSAS
NATIONAL WEATHER SERVICE GOODLAND KS
100 AM CST FRI NOV 17 2017

NOTE:  "FAIR" INDICATES FEW OR NO CLOUDS BELOW 12,000 FEET WITH NO
SIGNIFICANT WEATHER AND/OR OBSTRUCTIONS TO VISIBILITY.

KSZ001>006-013>018-027>032-041>047-170800-
NORTHWEST KANSAS

CITY           SKY/WX    TMP DP  RH WIND       PRES   REMARKS
GOODLAND       CLOUDY    51  29  42 W14       29.68S
HAYS           CLOUDY    51  48  89 S16       29.73F
HILL CITY      CLOUDY    51  46  83 S12       29.70F
RUSSELL        PTCLDY    52  52 100 S23       29.72F
$$

KSZ061>065-074>080-084>089-170800-
SOUTHWEST KANSAS

CITY           SKY/WX    TMP DP  RH WIND       PRES   REMARKS
DODGE CITY     CLOUDY    49  46  90 S17       29.77F FOG
GARDEN CITY    CLOUDY    46  43  89 S13       29.74F
LIBERAL        CLOUDY    49  43  80 SW10      29.77F
$$

KSZ066>073-081>083-090>101-170800-
SOUTHEAST KANSAS

CITY           SKY/WX    TMP DP  RH WIND       PRES   REMARKS
CHANUTE        CLOUDY    58  49  72 S14       29.94F
COFFEYVILLE    CLOUDY    58  50  75 S14       29.95F
HUTCHINSON     CLOUDY    58  55  90 S20       29.82F
MEDICINE LODGE   N/A     54  54 100 SE12G22   29.82F
NEWTON         CLOUDY    58  54  86 S21       29.84F
PARSONS          N/A    N/A N/A N/A MISG      29.95F
WICHITA INTL   CLOUDY    58  57  97 S21G29    29.84F
WICHITA JABRA  CLOUDY    58  56  93 S18G26    29.85F
WICHITA MCCONL CLOUDY    58  54  86 S17G24    29.85F
WINFIELD       CLOUDY    58  56  93 S20       29.88F
$$

KSZ007>012-019>026-033>040-048>060-102>105-170800-
NORTHEAST KANSAS

CITY           SKY/WX    TMP DP  RH WIND       PRES   REMARKS
CONCORDIA      CLOUDY    54  48  80 S12       29.78F
EMPORIA        CLOUDY    57  49  74 S16       29.87F
LAWRENCE       CLOUDY    53  38  56 SE8       29.91F
MANHATTAN      CLOUDY    57  47  69 S12       29.83F
OLATHE IND     CLOUDY    53  38  56 SE13      29.92F
OLATHE EXE     CLOUDY    51  38  60 S14       29.92F
SALINA         CLOUDY    60  54  80 S17G26    29.81F
TOPEKA BILLARD CLOUDY    53  39  59 SE9       29.89F
TOPEKA FORBES  CLOUDY    55  41  59 SE9       29.88F
$$




USA.gov is the U.S. government's official web portal to all federal, state and local government web resources and services.